KC4LW Weather Reports


time (UTC)temp
C
wind
direction
speed
KPH
gust
KPH
rain 1hr
cm
rain 24hr
cm
rain mn
cm
humidity
%
barometer
mb
20260506184601 28 53 4.8 20.9 0.00 0.00 0.00 70 1014.8
20260506183103 28 87 6.4 19.3 0.00 0.00 0.00 69 1015.0
20260506181619 29 70 6.4 20.9 0.00 0.00 0.00 68 1015.2
20260506180050 30 75 8.0 16.1 0.00 0.00 0.00 64 1015.2
20260506174551 31 196 4.8 11.3 0.00 0.00 0.00 61 1015.3
20260506173101 31 246 4.8 14.5 0.00 0.00 0.00 58 1015.8
20260506171552 30 223 3.2 19.3 0.00 0.00 0.00 59 1015.6
20260506170055 30 163 1.6 12.9 0.00 0.00 0.00 60 1016.0
20260506164554 30 221 3.2 17.7 0.00 0.00 0.00 60 1016.1
20260506163055 30 187 4.8 14.5 0.00 0.00 0.00 61 1016.4
20260506161554 29 246 6.4 20.9 0.00 0.00 0.00 61 1016.4
20260506160108 29 235 4.8 22.5 0.00 0.00 0.00 62 1016.4
20260506154603 28 263 3.2 17.7 0.00 0.00 0.00 64 1016.5
20260506153112 28 200 3.2 16.1 0.00 0.00 0.00 66 1016.4
20260506151602 27 208 3.2 16.1 0.00 0.00 0.00 66 1016.6
20260506150100 27 116 6.4 17.7 0.00 0.00 0.00 68 1016.5
20260506144557 27 296 6.4 14.5 0.00 0.00 0.00 69 1016.3
20260506143053 26 215 3.2 17.7 0.00 0.00 0.00 70 1016.2
20260506141553 26 205 4.8 16.1 0.00 0.00 0.00 71 1016.3
20260506140054 25 198 4.8 17.7 0.00 0.00 0.00 74 1016.3
20260506134557 25 240 1.6 17.7 0.00 0.00 0.00 76 1016.5
20260506133054 24 238 1.6 14.5 0.00 0.00 0.00 78 1016.4
20260506131554 24 191 1.6 11.3 0.00 0.00 0.00 78 1016.4
20260506130050 23 243 1.6 12.9 0.00 0.00 0.00 80 1016.3
20260506124554 22 158 4.8 14.5 0.00 0.00 0.00 82 1016.1
20260506123054 21 206 1.6 8.0 0.00 0.00 0.00 85 1016.1
20260506121555 20 213 1.6 9.7 0.00 0.00 0.00 88 1015.9
20260506120059 18 211 3.2 9.7 0.00 0.00 0.00 90 1015.8
20260506114558 18 0 1.6 6.4 0.00 0.00 0.00 92 1015.6
20260506113056 17 210 0.0 3.2 0.00 0.00 0.00 92 1015.6
20260506111551 17 0 0.0 0.0 0.00 0.00 0.00 92 1015.4
20260506110054 16 0 0.0 0.0 0.00 0.00 0.00 91 1015.2
20260506104558 17 0 0.0 0.0 0.00 0.00 0.00 91 1015.2
20260506103056 17 0 0.0 1.6 0.00 0.00 0.00 91 1015.0
20260506101555 17 0 0.0 0.0 0.00 0.00 0.00 90 1015.1
20260506100055 16 0 0.0 0.0 0.00 0.00 0.00 89 1014.9
20260506094552 17 0 0.0 0.0 0.00 0.00 0.00 89 1015.2
20260506093059 17 0 0.0 0.0 0.00 0.00 0.00 89 1015.0
20260506091600 17 0 0.0 0.0 0.00 0.00 0.00 88 1014.9
20260506090059 17 0 0.0 0.0 0.00 0.00 0.00 88 1014.9
20260506084606 17 0 0.0 3.2 0.00 0.00 0.00 87 1014.6
20260506083059 17 176 0.0 1.6 0.00 0.00 0.00 87 1014.8
20260506081602 17 0 0.0 0.0 0.00 0.00 0.00 86 1014.9
20260506080107 17 0 0.0 1.6 0.00 0.00 0.00 86 1014.9
20260506073100 17 0 0.0 0.0 0.00 0.00 0.00 86 1014.5
20260506071605 17 0 0.0 0.0 0.00 0.00 0.00 86 1014.8
20260506070104 17 0 0.0 1.6 0.00 0.00 0.00 87 1014.8
20260506061556 17 0 0.0 0.0 0.00 0.00 0.00 87 1015.4
20260506050105 18 0 0.0 0.0 0.00 0.00 0.00 84 1015.7
20260506044554 18 0 0.0 0.0 0.00 0.00 0.00 83 1015.7
20260506043051 18 0 0.0 0.0 0.00 0.00 0.00 82 1015.6
20260506041553 19 0 0.0 0.0 0.00 0.00 0.00 81 1015.8
20260506040057 19 0 0.0 0.0 0.00 0.00 0.00 80 1015.9
20260506034614 20 0 0.0 0.0 0.00 0.00 0.00 78 1015.8
20260506033054 20 0 0.0 0.0 0.00 0.00 0.00 77 1015.9
20260506031607 21 0 0.0 3.2 0.00 0.00 0.00 76 1015.8
20260506030058 21 0 0.0 3.2 0.00 0.00 0.00 75 1015.5
20260506024618 21 0 0.0 3.2 0.00 0.00 0.00 74 1015.2
20260506023054 21 0 1.6 6.4 0.00 0.00 0.00 73 1015.2
20260506021554 21 68 1.6 6.4 0.00 0.00 0.00 72 1015.0
20260506020058 21 96 1.6 9.7 0.00 0.00 0.00 71 1015.0
20260506014553 21 0 1.6 6.4 0.00 0.00 0.00 71 1015.1
20260506013103 21 93 0.0 6.4 0.00 0.00 0.00 70 1015.0
20260506011604 21 93 1.6 4.8 0.00 0.00 0.00 70 1014.9
20260506010057 21 87 1.6 4.8 0.00 0.00 0.00 70 1014.8
20260506004556 22 92 3.2 12.9 0.00 0.00 0.00 69 1014.9
20260506003052 22 0 1.6 6.4 0.00 0.00 0.00 70 1014.9
20260506001555 22 105 1.6 9.7 0.00 0.00 0.00 70 1014.7
20260506000052 22 0 1.6 14.5 0.00 0.00 0.00 69 1014.5
20260505234556 22 83 4.8 14.5 0.00 0.00 0.00 68 1014.5
20260505233051 22 109 6.4 17.7 0.00 0.00 0.00 66 1014.6
20260505231554 23 74 3.2 14.5 0.00 0.00 0.00 68 1014.5
20260505230105 23 84 6.4 17.7 0.00 0.00 0.00 67 1014.6
20260505224553 23 87 4.8 17.7 0.00 0.00 0.00 67 1014.7
20260505223109 23 96 4.8 20.9 0.00 0.00 0.00 66 1014.6
20260505221552 23 136 3.2 20.9 0.00 0.00 0.00 67 1014.7
20260505220112 24 114 4.8 20.9 0.00 0.00 0.00 65 1014.7
20260505214556 24 128 4.8 12.9 0.00 0.00 0.00 64 1014.5
20260505213059 24 114 6.4 17.7 0.00 0.00 0.00 62 1014.7
20260505211556 25 64 4.8 17.7 0.00 0.00 0.00 60 1014.5
20260505210056 24 74 6.4 16.1 0.00 0.00 0.00 61 1014.8
20260505204601 25 26 4.8 22.5 0.00 0.00 0.00 59 1014.9
20260505203102 25 76 8.0 17.7 0.00 0.00 0.00 58 1014.9
20260505201553 25 98 4.8 20.9 0.00 0.00 0.00 60 1015.4
20260505200051 25 115 6.4 20.9 0.00 0.00 0.00 61 1015.3
20260505194604 25 87 6.4 20.9 0.00 0.00 0.00 59 1015.6
20260505193052 26 182 4.8 19.3 0.00 0.00 0.00 57 1015.6
20260505191553 26 124 3.2 19.3 0.00 0.00 0.00 58 1015.6
20260505190055 25 36 4.8 20.9 0.00 0.00 0.00 57 1015.8